Weather History for Sacramento, CA

Change the Weather History Date:

Monday, March 26, 2012

  Actual Average Record
Temperature  
Mean Temperature 51 °F -  
Max Temperature 60 °F 66 °F 88 °F (1988)
Min Temperature 42 °F 45 °F 35 °F (1972)
Degree Days  
Heating Degree Days 14    
Month to date heating degree days 324  
Cooling Degree Days 0    
Month to date cooling degree days 0  
Year to date cooling degree days 0  
Moisture  
Dew Point 40 °F    
Average Humidity 72    
Maximum Humidity 96    
Minimum Humidity 47    
Precipitation  
Precipitation 0.00 in 0.07 in 0.61 in (1991)
Month to date precipitation 2.65 2.43  
Year to date precipitation 6.00 9.54  
Since 1 July precipitation 8.35 16.16  
Sea Level Pressure  
Sea Level Pressure 30.03 in    
Wind  
Wind Speed 5 mph (South)    
Max Wind Speed 12 mph    
Max Gust Speed 18 mph    
Visibility 10 miles    
Events      
T = Trace of Precipitation, MM = Missing Value Source: NWS Daily Summary

Daily Weather History Graph

Daily Weather History Graph

Search for Another Location

Airport:

Trip Planner

Search our weather history database for the weather conditions in past years. The results will help you decide how hot, cold, wet, or windy it might be!

Date:

Astronomy

Mar. 26, 2012 Rise Set
Actual Time 6:59 AM PDT 7:24 PM PDT
Civil Twilight 6:32 AM PDT 7:50 PM PDT
Nautical Twilight 6:01 AM PDT 8:22 PM PDT
Astronomical Twilight 5:29 AM PDT 8:54 PM PDT
Moon 8:55 AM PDT (3/26) 11:35 PM PDT (3/26)
Length of Visible Light 13h 18m
Length of Day
12h 25m
Waxing Crescent, 15% of the Moon is Illuminated
Mar 26
Waxing Crescent
Mar 30
First Quarter
Apr 6
Full
Apr 13
Last Quarter
Apr 21
New

Hourly Weather History & Observations

Time (PDT) Temp. Windchill Dew Point Humidity Pressure Visibility Wind Dir Wind Speed Gust Speed Precip Events Conditions
12:53 AM 46.0 °F 44.8 °F 43.0 °F 89% 29.88 in 10.0 mi South 3.5 mph - N/A   Partly Cloudy
1:53 AM 44.1 °F 41.5 °F 42.1 °F 93% 29.90 in 10.0 mi SSW 4.6 mph - N/A   Partly Cloudy
2:53 AM 43.0 °F 39.5 °F 41.0 °F 93% 29.92 in 10.0 mi SSW 5.8 mph - N/A   Clear
3:53 AM 43.0 °F 41.3 °F 39.9 °F 89% 29.94 in 10.0 mi South 3.5 mph - N/A   Clear
4:53 AM 42.1 °F 39.2 °F 39.0 °F 89% 29.96 in 10.0 mi South 4.6 mph - N/A   Clear
5:53 AM 42.8 °F 40.1 °F 37.4 °F 81% 29.99 in 10.0 mi SE 4.6 mph - N/A   Clear
6:53 AM 42.1 °F 39.2 °F 37.9 °F 85% 30.02 in 10.0 mi SSE 4.6 mph - N/A   Clear
7:53 AM 45.0 °F 41.8 °F 37.9 °F 76% 30.06 in 10.0 mi SE 5.8 mph - N/A   Clear
8:53 AM 48.2 °F - 41.0 °F 76% 30.09 in 10.0 mi South 5.8 mph - N/A   Clear
9:53 AM 51.1 °F - 42.1 °F 71% 30.10 in 10.0 mi South 6.9 mph - N/A   Clear
10:53 AM 52.0 °F - 39.9 °F 63% 30.10 in 10.0 mi SSE 4.6 mph - N/A   Scattered Clouds
11:53 AM 54.0 °F - 41.0 °F 62% 30.10 in 10.0 mi East 6.9 mph - N/A   Mostly Cloudy
12:53 PM 55.9 °F - 42.1 °F 60% 30.09 in 10.0 mi South 9.2 mph - N/A   Overcast
1:53 PM 55.9 °F - 43.0 °F 62% 30.09 in 10.0 mi SSW 5.8 mph - N/A   Mostly Cloudy
2:53 PM 59.0 °F - 41.0 °F 51% 30.06 in 10.0 mi Variable 5.8 mph - N/A   Mostly Cloudy
3:53 PM 57.9 °F - 39.9 °F 51% 30.06 in 10.0 mi SW 9.2 mph - N/A   Overcast
4:53 PM 59.0 °F - 39.9 °F 49% 30.05 in 10.0 mi South 5.8 mph - N/A   Mostly Cloudy
5:53 PM 59.0 °F - 39.0 °F 48% 30.04 in 10.0 mi South 5.8 mph - N/A   Scattered Clouds
6:53 PM 57.9 °F - 37.0 °F 46% 30.04 in 10.0 mi SSW 4.6 mph - N/A   Mostly Cloudy
7:53 PM 55.9 °F - 37.9 °F 51% 30.03 in 10.0 mi SW 3.5 mph - N/A   Mostly Cloudy
8:53 PM 55.9 °F - 37.0 °F 49% 30.04 in 10.0 mi Calm Calm - N/A   Mostly Cloudy
9:53 PM 55.0 °F - 37.0 °F 51% 30.04 in 10.0 mi SSW 4.6 mph - N/A   Scattered Clouds
10:53 PM 53.1 °F - 39.9 °F 61% 30.04 in 10.0 mi Calm Calm - N/A   Overcast
11:53 PM 53.1 °F - 39.0 °F 59% 30.03 in 10.0 mi Calm Calm - N/A   Mostly Cloudy